DW3560 Weather Reports


Display with metric or nautical units.
time (UTC)temp
F
wind
direction
speed
MPH
gust
MPH
rain 1hr
in
rain 24hr
in
rain mn
in
humidity
%
barometer
mb
20260504230002 62 329 2.0 9.0 0.00 0.00 0.00 64 1014.9
20260504225523 62 315 2.0 9.0 0.00 0.00 0.00 64 1014.9
20260504225002 63 248 1.0 4.0 0.00 0.00 0.00 66 1014.9
20260504224523 62 207 1.0 4.0 0.00 0.00 0.00 65 1014.9
20260504224002 62 168 1.0 6.0 0.00 0.00 0.00 66 1014.9
20260504223502 62 268 1.0 6.0 0.00 0.00 0.00 66 1014.9
20260504223002 62 244 1.0 5.0 0.00 0.00 0.00 66 1014.9
20260504222502 62 296 1.0 5.0 0.00 0.00 0.00 67 1014.9
20260504222002 62 295 1.0 7.0 0.00 0.00 0.00 67 1014.9
20260504221502 62 302 1.0 8.0 0.00 0.00 0.00 67 1014.9
20260504221002 62 281 1.0 8.0 0.00 0.00 0.00 67 1015.0
20260504220502 62 319 1.0 6.0 0.00 0.00 0.00 67 1015.0
20260504220002 62 318 1.0 6.0 0.00 0.00 0.00 66 1015.0
20260504215523 62 314 1.0 5.0 0.00 0.00 0.00 65 1015.0
20260504215002 62 339 1.0 5.0 0.00 0.00 0.00 66 1015.0
20260504214502 62 323 1.0 4.0 0.00 0.00 0.00 67 1015.0
20260504214002 62 292 2.0 5.0 0.00 0.00 0.00 67 1015.0
20260504213523 62 254 2.0 5.0 0.00 0.00 0.00 66 1015.0
20260504213023 62 239 2.0 7.0 0.00 0.00 0.00 66 1015.0
20260504212502 63 305 1.0 7.0 0.00 0.00 0.00 66 1015.0
20260504212002 63 324 1.0 7.0 0.00 0.00 0.00 67 1015.0
20260504211502 63 267 2.0 7.0 0.00 0.00 0.00 67 1015.0
20260504211023 62 279 1.0 6.0 0.00 0.00 0.00 68 1015.0
20260504210502 62 242 1.0 7.0 0.00 0.00 0.00 68 1015.0
20260504210002 62 239 2.0 7.0 0.00 0.00 0.00 68 1015.0
20260504205502 62 239 2.0 11.0 0.00 0.00 0.00 67 1015.0
20260504205002 62 241 2.0 11.0 0.00 0.00 0.00 67 1015.0
20260504204502 62 250 1.0 5.0 0.00 0.00 0.00 68 1015.0
20260504204002 62 231 2.0 6.0 0.00 0.00 0.00 68 1015.0
20260504203502 62 257 2.0 6.0 0.00 0.00 0.00 65 1015.0
20260504203023 62 236 2.0 7.0 0.00 0.00 0.00 66 1015.0
20260504202502 62 220 2.0 7.0 0.00 0.00 0.00 65 1015.0
20260504202023 63 231 2.0 7.0 0.00 0.00 0.00 64 1015.0
20260504201502 63 258 2.0 7.0 0.00 0.00 0.00 63 1015.0
20260504201023 63 312 2.0 8.0 0.00 0.00 0.00 66 1015.0
20260504200502 63 256 2.0 8.0 0.00 0.00 0.00 64 1015.0
20260504200002 64 258 2.0 6.0 0.00 0.00 0.00 64 1015.0
20260504195502 64 316 2.0 8.0 0.00 0.00 0.00 66 1015.0
20260504195002 64 264 2.0 8.0 0.00 0.00 0.00 65 1015.0
20260504194502 63 245 2.0 9.0 0.00 0.00 0.00 64 1015.0
20260504194002 63 245 2.0 9.0 0.00 0.00 0.00 64 1015.0
20260504193502 63 235 1.0 8.0 0.00 0.00 0.00 64 1015.0
20260504193002 63 330 1.0 6.0 0.00 0.00 0.00 65 1015.0
20260504192523 63 329 1.0 6.0 0.00 0.00 0.00 65 1015.0
20260504192023 63 281 1.0 5.0 0.00 0.00 0.00 66 1015.0
20260504191502 63 278 2.0 10.0 0.00 0.00 0.00 65 1015.0
20260504191002 63 253 1.0 5.0 0.00 0.00 0.00 64 1015.1
20260504190502 63 272 1.0 5.0 0.00 0.00 0.00 65 1015.1
20260504190002 62 335 1.0 5.0 0.00 0.00 0.00 66 1015.1
20260504185502 62 327 1.0 6.0 0.00 0.00 0.00 67 1015.1
20260504185002 62 279 1.0 6.0 0.00 0.00 0.00 65 1015.1
20260504184502 62 342 1.0 5.0 0.00 0.00 0.00 68 1015.1
20260504184002 61 352 2.0 6.0 0.00 0.00 0.00 68 1015.1
20260504183502 61 344 2.0 6.0 0.00 0.00 0.00 68 1015.1
20260504183023 61 338 1.0 5.0 0.00 0.00 0.00 70 1015.1
20260504182502 61 341 2.0 5.0 0.00 0.00 0.00 70 1015.1
20260504182002 60 347 1.0 8.0 0.00 0.00 0.00 69 1015.1
20260504181502 60 348 1.0 8.0 0.00 0.00 0.00 69 1015.1
20260504181002 60 349 1.0 8.0 0.00 0.00 0.00 71 1014.8
20260504180523 60 343 2.0 8.0 0.00 0.00 0.00 71 1014.8
20260504180023 60 275 2.0 6.0 0.00 0.00 0.00 72 1014.8
20260504175502 59 238 2.0 5.0 0.00 0.00 0.00 71 1014.8
20260504175002 60 280 1.0 4.0 0.00 0.00 0.00 71 1014.8
20260504174502 60 312 1.0 4.0 0.00 0.00 0.00 73 1014.8
20260504174023 59 302 1.0 4.0 0.00 0.00 0.00 73 1014.8
20260504173502 59 251 1.0 4.0 0.00 0.00 0.00 74 1014.8
20260504173002 58 216 1.0 5.0 0.00 0.00 0.00 75 1014.8
20260504172502 58 228 1.0 5.0 0.00 0.00 0.00 75 1014.8
20260504172002 57 218 2.0 6.0 0.00 0.00 0.00 76 1014.8
20260504171502 57 209 2.0 6.0 0.00 0.00 0.00 77 1014.8
20260504171003 57 205 3.0 6.0 0.00 0.00 0.00 76 1014.0
20260504170502 57 187 3.0 6.0 0.00 0.00 0.00 77 1014.0
20260504151023 52 148 1.0 4.0 0.00 0.00 0.00 84 1014.0
20260504150502 51 153 1.0 4.0 0.00 0.00 0.00 85 1014.0
20260504141002 50 144 1.0 2.0 0.00 0.00 0.00 87 1014.0
20260504140502 50 145 1.0 3.0 0.00 0.00 0.00 87 1014.0
20260504130502 50 190 1.0 2.0 0.00 0.00 0.00 87 1014.0
20260504110502 50 169 0.0 2.0 0.00 0.00 0.00 90 1014.0
20260504100502 51 226 0.0 2.0 0.00 0.00 0.00 90 1014.0
20260504082003 50 189 1.0 4.0 0.00 0.00 0.00 89 1014.3
20260504081502 50 189 1.0 4.0 0.00 0.00 0.00 89 1014.3
20260504081002 50 190 1.0 3.0 0.00 0.00 0.00 89 1014.3
20260504080502 50 188 0.0 2.0 0.00 0.00 0.00 89 1014.3
20260504050502 52 254 1.0 4.0 0.00 0.00 0.00 85 1013.7
20260504050024 52 258 1.0 3.0 0.00 0.00 0.00 84 1013.7
20260504045503 52 239 0.0 3.0 0.00 0.00 0.00 84 1013.7
20260504045003 53 238 1.0 5.0 0.00 0.00 0.00 84 1013.7
20260504044503 53 242 1.0 5.0 0.00 0.00 0.00 83 1013.7
20260504044002 53 245 0.0 2.0 0.00 0.00 0.00 83 1013.7
20260504043503 53 245 0.0 2.0 0.00 0.00 0.00 83 1013.7
20260504043003 53 245 0.0 3.0 0.00 0.00 0.00 83 1013.7
20260504042503 53 247 1.0 3.0 0.00 0.00 0.00 82 1013.7
20260504042003 53 239 1.0 4.0 0.00 0.00 0.00 82 1013.7
20260504041503 53 229 1.0 4.0 0.00 0.00 0.00 82 1013.7
20260504041003 53 236 1.0 4.0 0.00 0.00 0.00 81 1013.1
20260504040502 53 239 1.0 4.0 0.00 0.00 0.00 81 1013.1
20260504040003 53 246 1.0 3.0 0.00 0.00 0.00 80 1013.1
20260504035502 53 247 1.0 3.0 0.00 0.00 0.00 80 1013.1
20260504035003 53 246 0.0 2.0 0.00 0.00 0.00 80 1013.1
20260504034503 53 239 0.0 2.0 0.00 0.00 0.00 80 1013.1
20260504034007 54 243 0.0 4.0 0.00 0.00 0.00 80 1013.1
20260504033503 54 260 1.0 4.0 0.00 0.00 0.00 79 1013.1
20260504033002 54 264 1.0 3.0 0.00 0.00 0.00 79 1013.1
20260504032504 54 263 1.0 6.0 0.00 0.00 0.00 79 1013.1
20260504032003 54 264 1.0 6.0 0.00 0.00 0.00 79 1013.1
20260504031503 54 242 0.0 5.0 0.00 0.00 0.00 79 1013.1
20260504031003 54 234 1.0 8.0 0.00 0.00 0.00 79 1012.5
20260504030503 54 239 1.0 8.0 0.00 0.00 0.00 79 1012.5
20260504030003 54 267 1.0 5.0 0.00 0.00 0.00 79 1012.5
20260504025524 55 255 1.0 8.0 0.00 0.00 0.00 79 1012.5
20260504025003 55 245 1.0 8.0 0.00 0.00 0.00 79 1012.5
20260504024503 55 221 1.0 7.0 0.00 0.00 0.00 79 1012.5
20260504024003 55 236 1.0 8.0 0.00 0.00 0.00 78 1012.5
20260504023503 55 232 1.0 8.0 0.00 0.00 0.00 78 1012.5
20260504023024 55 255 1.0 5.0 0.00 0.00 0.00 77 1012.5
20260504022524 56 303 0.0 5.0 0.00 0.00 0.00 78 1012.5
20260504022002 56 301 1.0 4.0 0.00 0.00 0.00 78 1012.5
20260504021524 56 293 1.0 4.0 0.00 0.00 0.00 77 1012.5
20260504021024 56 339 0.0 4.0 0.00 0.00 0.00 77 1012.6
20260504020503 56 347 1.0 4.0 0.00 0.00 0.00 77 1012.6
20260504020024 56 339 1.0 4.0 0.00 0.00 0.00 77 1012.6
20260504015502 56 324 1.0 9.0 0.00 0.00 0.00 77 1012.6
20260504015024 56 306 1.0 9.0 0.00 0.00 0.00 77 1012.6
20260504014524 56 290 1.0 8.0 0.00 0.00 0.00 76 1012.6
20260504014003 57 332 1.0 5.0 0.00 0.00 0.00 76 1012.6
20260504013502 57 344 1.0 4.0 0.00 0.00 0.00 75 1012.6
20260504013024 57 260 1.0 4.0 0.00 0.00 0.00 75 1012.6
20260504012503 57 249 1.0 4.0 0.00 0.00 0.00 76 1012.6
20260504012003 57 255 1.0 4.0 0.00 0.00 0.00 76 1012.6
20260504011503 57 233 1.0 4.0 0.00 0.00 0.00 75 1012.6
20260504011003 57 204 1.0 4.0 0.00 0.00 0.00 74 1012.6
20260504010503 57 220 1.0 4.0 0.00 0.00 0.00 74 1012.6
20260504010003 57 242 1.0 4.0 0.00 0.00 0.00 74 1012.6
20260504005503 57 268 1.0 5.0 0.00 0.00 0.00 74 1012.6
20260504005003 58 259 1.0 5.0 0.00 0.00 0.00 74 1012.6
20260504004503 58 250 1.0 5.0 0.00 0.00 0.00 74 1012.6
20260504004003 58 247 2.0 7.0 0.00 0.00 0.00 74 1012.6
20260504003503 58 240 1.0 7.0 0.00 0.00 0.00 73 1012.6
20260504003003 58 252 1.0 3.0 0.00 0.00 0.00 73 1012.6
20260504002503 59 250 1.0 5.0 0.00 0.00 0.00 73 1012.6
20260504002003 59 248 1.0 8.0 0.00 0.00 0.00 72 1012.6
20260504001503 58 242 2.0 8.0 0.00 0.00 0.00 72 1012.6
20260504001003 59 238 3.0 8.0 0.00 0.00 0.00 71 1012.6
20260504000503 59 248 3.0 8.0 0.00 0.00 0.00 70 1012.6
20260504000003 59 263 2.0 7.0 0.00 0.00 0.00 71 1012.6
20260503235503 59 242 2.0 8.0 0.00 0.00 0.00 72 1012.6
20260503235003 59 236 3.0 9.0 0.00 0.00 0.00 71 1012.6
20260503234524 59 241 2.0 9.0 0.00 0.00 0.00 72 1012.6
20260503234024 59 236 2.0 6.0 0.00 0.00 0.00 72 1012.6
20260503233503 59 234 2.0 11.0 0.00 0.00 0.00 72 1012.6
20260503233003 59 239 2.0 11.0 0.00 0.00 0.00 73 1012.6
20260503232503 59 242 2.0 8.0 0.00 0.00 0.00 73 1012.6
20260503232003 59 239 1.0 7.0 0.00 0.00 0.00 73 1012.6
20260503231524 59 243 1.0 4.0 0.00 0.00 0.00 73 1012.6
20260503231003 58 240 1.0 6.0 0.00 0.00 0.00 74 1012.6
20260503230503 58 233 2.0 6.0 0.00 0.00 0.00 74 1012.6